Nellis AFB, NV

5:24 AM PST on November 22, 2017 (GMT -0800)
Nellis Air Force Base

Weather History for KLSV - February, 2013

Change the Weather History Date:

Wednesday, February 27, 2013

  Actual Average Record
Temperature  
Mean Temperature 48 °F -  
Max Temperature 59 °F 60 °F 80 °F (2016)
Min Temperature 36 °F 40 °F 35 °F (2011)
Degree Days  
Heating Degree Days 18    
Moisture  
Dew Point 7 °F    
Average Humidity 20    
Maximum Humidity 32    
Minimum Humidity 10    
Precipitation  
Precipitation 0.00 in - - ()
Sea Level Pressure  
Sea Level Pressure 30.33 in    
Wind  
Wind Speed 6 mph (NE)    
Max Wind Speed 15 mph    
Max Gust Speed 20 mph    
Visibility 10 miles    
Events      
Averages and records for this station are not official NWS values.
T = Trace of Precipitation, MM = Missing Value Source: NWS Daily Summary

Daily Weather History Graph

Daily Weather History Graph

Search for Another Location

Airport or City:

Trip Planner

Search our weather history database for the weather conditions in past years. The results will help you decide how hot, cold, wet, or windy it might be!

Date:

Astronomy

Feb. 27, 2013 Rise Set
Actual Time 6:12 AM PST 5:33 PM PST
Civil Twilight 5:46 AM PST 5:59 PM PST
Nautical Twilight 5:17 AM PST 6:29 PM PST
Astronomical Twilight 4:47 AM PST 6:58 PM PST
Moon 7:53 PM PST (2/27) 6:55 AM PST (2/27)
Length of Visible Light 12h 12m
Length of Day
11h 20m
Waning Gibbous, 96% of the Moon is Illuminated
Feb 27
Waning Gibbous
Mar 4
Last Quarter
Mar 11
New
Mar 19
First Quarter
Mar 27
Full

Hourly Weather History & Observations

Time (PST) Temp. Windchill Dew Point Humidity Pressure Visibility Wind Dir Wind Speed Gust Speed Precip Events Conditions
12:58 AM 45.5 °F 41.3 °F 12.4 °F 26% 30.30 in 10.0 mi NNE 8.1 mph - N/A   Clear
1:58 AM 44.8 °F 41.0 °F 12.0 °F 27% 30.30 in 10.0 mi NE 6.9 mph - N/A   Clear
2:58 AM 44.6 °F 39.2 °F 11.8 °F 27% 30.29 in 10.0 mi NE 10.4 mph 17.3 mph N/A   Clear
3:58 AM 40.3 °F 35.5 °F 12.0 °F 32% 30.31 in 10.0 mi NE 6.9 mph - N/A   Clear
4:58 AM 39.0 °F 36.8 °F 9.1 °F 29% 30.33 in 10.0 mi NNE 3.5 mph - N/A   Clear
5:58 AM 37.6 °F 32.3 °F 8.1 °F 29% 30.36 in 10.0 mi WNW 6.9 mph - N/A   Clear
6:58 AM 36.7 °F - 8.2 °F 31% 30.38 in 10.0 mi WNW 2.3 mph - N/A   Clear
7:58 AM 41.5 °F 38.6 °F 10.9 °F 29% 30.40 in 10.0 mi NW 4.6 mph - N/A   Clear
8:58 AM 47.3 °F - 10.4 °F 23% 30.40 in 10.0 mi NNE 8.1 mph - N/A   Clear
9:58 AM 50.2 °F - 9.7 °F 20% 30.40 in 10.0 mi NNE 2.3 mph - N/A   Clear
10:58 AM 52.7 °F - 10.2 °F 18% 30.38 in 10.0 mi Calm Calm - N/A   Clear
11:58 AM 54.7 °F - 3.2 °F 12% 30.35 in 10.0 mi Calm Calm - N/A   Clear
12:58 PM 56.8 °F - 0.5 °F 10% 30.32 in 10.0 mi Calm Calm - N/A   Clear
1:58 PM 57.7 °F - -0.2 °F 10% 30.30 in 10.0 mi Calm Calm - N/A   Clear
2:58 PM 58.5 °F - 2.3 °F 10% 30.29 in 10.0 mi Calm Calm - N/A   Clear
3:19 PM 59.0 °F - 1.4 °F 10% 30.29 in 10.0 mi NE 15.0 mph 19.6 mph N/A   Clear
3:58 PM 58.6 °F - 2.3 °F 10% 30.28 in 10.0 mi ENE 12.7 mph - N/A   Clear
4:58 PM 57.9 °F - 1.8 °F 10% 30.29 in 10.0 mi ENE 10.4 mph - N/A   Clear
5:58 PM 53.6 °F - 5.4 °F 14% 30.30 in 10.0 mi ENE 6.9 mph - N/A   Clear
6:58 PM 50.7 °F - 5.5 °F 16% 30.32 in 10.0 mi Calm Calm - N/A   Clear
7:58 PM 48.6 °F - 5.7 °F 17% 30.33 in 10.0 mi Calm Calm - N/A   Clear
8:58 PM 46.2 °F - 5.5 °F 19% 30.33 in 10.0 mi Calm Calm - N/A   Clear
9:58 PM 43.5 °F 40.1 °F 6.3 °F 22% 30.36 in 10.0 mi NE 5.8 mph - N/A   Clear
10:58 PM 43.7 °F 42.1 °F 5.7 °F 21% 30.36 in 10.0 mi NE 3.5 mph - N/A   Clear
11:58 PM 43.3 °F 38.1 °F 5.4 °F 21% 30.37 in 10.0 mi East 9.2 mph - N/A   Clear